Terminal Aerodrome Forecast
Issued by NWS

Home | Current Version | Previous Version | Text Only | Print | Product List | Glossary Off
Versions: 1 2 3 4 5 6 7 8 9 10 11 12 13 14 15 16 17 18 19 20 21 22 23 24 25 26 27 28 29 30

000
FTUS43 KLOT 211900 AAA
TAFORD
TAF AMD
KORD 211957Z 2120/2224 23011G16KT P6SM VCSH SCT050 BKN080
     FM212200 26011G17KT 5SM SHRA VCTS BKN045CB
      TEMPO 2122/2201 3SM SHRA BKN035
     FM220200 33012G21KT P6SM SCT040
     FM222100 04012G19KT P6SM SKC=

USA.gov is the U.S. government's official web portal to all federal, state and local government web resources and services.